[[{"header":{"parameterUnit":"m.s-1","parameterCategory":1,"la1":30.2992,"la2":30.254,"lo1":-89.0895,"lo2":-89.0443,"dy":0.0025,"dx":0.0025,"nx":19,"ny":19,"refTime":"2026-03-16T21:00:00:Z","depth":0,"parameterNumber":2,"parameterNumberName":"U-component_of_WINDS"},"data":[0,0,0,1.073,1.0729,1.0712,1.0712,1.0682,1.0681,0,0,0,0,0,0,0,0,0,0,0,1.0731,1.0731,1.073,1.0729,1.0712,1.0712,1.0682,1.0681,0,0,0,0,0,0,0,0,0,0,0,1.0731,1.0731,1.073,1.0729,1.0712,1.0712,1.0682,1.0698,0,0,0,0,0,0,0,0,0,0,1.0716,1.0713,1.0731,1.073,1.0729,1.0712,1.0712,1.0698,1.0697,1.0686,0,1.0677,0,1.0679,1.0679,1.0679,0,0,0,1.0732,1.0714,1.0714,1.073,1.0729,1.0712,1.0721,1.0697,1.0695,1.0684,1.0677,1.0676,1.0678,1.0679,1.0679,1.0614,1.0613,0,0,1.0733,1.0725,1.0715,1.0712,1.0716,1.0721,1.072,1.0696,1.0688,1.0677,1.0675,1.0678,1.0678,1.0678,1.0614,1.0613,0,0,0,1.0734,1.0726,1.0726,1.0713,1.0711,1.0721,1.0719,1.0689,1.0689,1.0675,1.0678,1.0678,1.0678,1.0614,1.0614,1.0585,0,0,0,1.0735,1.0726,1.0726,1.0721,1.0711,1.07,1.0712,1.0691,1.0689,1.0678,1.0678,1.0677,1.0615,1.0614,1.0587,1.0571,0,0,0,1.0733,1.0726,1.0723,1.0721,1.0713,1.07,1.07,1.0691,1.069,1.0679,1.0677,1.0615,1.0614,1.0588,1.0574,1.0551,0,0,0,1.0729,1.0696,1.0722,1.0686,1.0713,1.0684,1.07,1.0678,1.0665,1.0678,1.0615,1.0614,1.0589,1.0576,1.0553,1.0529,1.0519,0,0,1.0683,1.069,1.067,1.0693,1.0656,1.0687,1.0646,1.0641,1.0646,1.0624,1.0622,1.0586,1.0574,1.0552,1.0469,1.0461,0,0,0,1.0653,1.0638,1.063,1.0618,1.0615,1.061,1.0613,1.0611,1.0593,1.0634,1.0573,1.0566,1.0553,1.0542,1.0535,1.0524,1.0609,1.0609,1.0609,1.0574,1.0585,1.0552,1.056,1.0549,1.0553,1.0544,1.0542,1.0555,1.0541,1.0533,1.0482,1.0469,1.0464,1.0452,1.0523,1.0523,1.0523,1.0523,1.0506,1.0486,1.0506,1.0481,1.0493,1.0471,1.0474,1.0484,1.0465,1.0489,1.0477,1.05,1.0455,1.0445,1.0521,1.0521,1.0522,1.0522,1.0522,1.0454,1.0446,1.0446,1.0431,1.0418,1.0428,1.041,1.0421,1.0431,1.042,1.0413,1.0413,1.0414,1.0417,1.0416,1.0416,1.0416,1.0416,1.0416,1.0398,1.04,1.0383,1.0378,1.0373,1.0367,1.0372,1.0366,1.0362,1.0372,1.0372,1.0385,1.045,1.0464,1.0413,1.0414,1.0414,1.0414,1.0414,1.0321,1.0341,1.0315,1.031,1.0305,1.0291,1.0307,1.0295,1.0292,1.0282,1.03,1.0346,1.0354,1.0359,1.0371,1.0299,1.0299,1.0299,1.0299,1.0275,1.0282,1.0258,1.0248,1.0241,1.0253,1.0223,1.0227,1.0234,1.0233,1.0246,1.0263,1.0269,1.0273,1.028,1.0291,1.02,1.02,1.02,1.0227,1.0234,1.0206,1.0215,1.0213,1.021,1.0182,1.0169,1.0182,1.0196,1.0232,1.0236,1.0265,1.0274,1.0286,1.0297,1.0318,0,0]},{"header":{"parameterUnit":"m.s-1","parameterCategory":1,"la1":30.2992,"la2":30.254,"lo1":-89.0895,"lo2":-89.0443,"dy":0.0025,"dx":0.0025,"nx":19,"ny":19,"refTime":"2026-03-16T21:00:00:Z","depth":0,"parameterNumber":3,"parameterNumberName":"V-component_of_WINDS"},"data":[0,0,0,-7.135,-7.1356,-7.1612,-7.1612,-7.1954,-7.1957,0,0,0,0,0,0,0,0,0,0,0,-7.1288,-7.1291,-7.135,-7.1357,-7.1611,-7.1612,-7.1953,-7.1957,0,0,0,0,0,0,0,0,0,0,0,-7.1286,-7.129,-7.1293,-7.1358,-7.1611,-7.1612,-7.1953,-7.1754,0,0,0,0,0,0,0,0,0,0,-7.1503,-7.1459,-7.1289,-7.1294,-7.1359,-7.1611,-7.1613,-7.1744,-7.1766,-7.1846,0,-7.1924,0,-7.1947,-7.1981,-7.1983,0,0,0,-7.1346,-7.1441,-7.1498,-7.1294,-7.1362,-7.1611,-7.1493,-7.1756,-7.1781,-7.1876,-7.1929,-7.1941,-7.1952,-7.1984,-7.1986,-7.2491,-7.2494,0,0,-7.1332,-7.134,-7.1481,-7.1515,-7.1481,-7.1485,-7.1501,-7.1771,-7.1828,-7.193,-7.1949,-7.1958,-7.1986,-7.1989,-7.2488,-7.2492,0,0,0,-7.1298,-7.1331,-7.1381,-7.1502,-7.1547,-7.1493,-7.1511,-7.1816,-7.1832,-7.1952,-7.1962,-7.1988,-7.1993,-7.2485,-7.249,-7.2641,0,0,0,-7.1289,-7.1311,-7.1375,-7.1383,-7.1542,-7.1686,-7.1551,-7.1813,-7.1843,-7.196,-7.1988,-7.1996,-7.2482,-7.2488,-7.263,-7.2711,0,0,0,-7.1266,-7.1308,-7.135,-7.1383,-7.1493,-7.1681,-7.1712,-7.1819,-7.185,-7.1983,-7.1997,-7.248,-7.2487,-7.262,-7.2694,-7.2846,0,0,0,-7.1244,-7.148,-7.1353,-7.162,-7.1492,-7.1774,-7.171,-7.1919,-7.2051,-7.199,-7.2483,-7.2489,-7.2617,-7.2685,-7.2835,-7.2975,-7.3034,0,0,-7.1547,-7.1517,-7.1674,-7.1567,-7.1875,-7.1734,-7.2063,-7.2174,-7.2177,-7.2385,-7.2397,-7.2634,-7.2693,-7.2844,-7.3363,-7.341,0,0,0,-7.1772,-7.1885,-7.1965,-7.2093,-7.2185,-7.227,-7.233,-7.2371,-7.2548,-7.2287,-7.2729,-7.2764,-7.2852,-7.2918,-7.2958,-7.3032,-7.252,-7.252,-7.2519,-7.2214,-7.2207,-7.2464,-7.2488,-7.2612,-7.2672,-7.2771,-7.2835,-7.279,-7.2895,-7.2957,-7.3273,-7.3351,-7.3381,-7.3458,-7.303,-7.303,-7.3031,-7.3031,-7.2656,-7.2814,-7.275,-7.2977,-7.2967,-7.3156,-7.3221,-7.3183,-7.3355,-7.3226,-7.3303,-7.3162,-7.3433,-7.3499,-7.3043,-7.3041,-7.3039,-7.3038,-7.3037,-7.2944,-7.3018,-7.3066,-7.3248,-7.3389,-7.3403,-7.3572,-7.3556,-7.3541,-7.3617,-7.368,-7.3677,-7.3672,-7.3648,-7.365,-7.3651,-7.3652,-7.3652,-7.3653,-7.3224,-7.3272,-7.3419,-7.3536,-7.3615,-7.3716,-7.3777,-7.3853,-7.3933,-7.3907,-7.3907,-7.3851,-7.3461,-7.3363,-7.367,-7.3667,-7.3665,-7.3663,-7.3662,-7.3675,-7.357,-7.3797,-7.3876,-7.4011,-7.415,-7.4128,-7.4283,-7.4343,-7.4426,-7.4354,-7.4069,-7.4036,-7.4004,-7.3923,-7.4356,-7.4356,-7.4356,-7.4356,-7.3918,-7.39,-7.4127,-7.4254,-7.4377,-7.4379,-7.463,-7.4679,-7.4711,-7.4747,-7.4682,-7.4573,-7.4541,-7.4527,-7.4484,-7.4407,-7.4954,-7.4955,-7.4955,-7.4194,-7.4187,-7.4407,-7.4441,-7.4544,-7.4632,-7.4868,-7.5013,-7.5028,-7.4979,-7.4775,-7.4749,-7.4573,-7.4516,-7.4463,-7.4396,-7.4256,0,0]}]]